• Processing (Info)

  • MPEC 2023-S19 : 2023 RE15

    The following Minor Planet Electronic Circular may be linked-to from your own Web pages, but must not otherwise be redistributed electronically.

    A form allowing access to any MPEC is at the bottom of this page.


    Read MPEC 2023-S18 Read MPEC 2023-S20


    M.P.E.C. 2023-S19                            Issued 2023 September 16, 22:28 UT
    
         The Minor Planet Electronic Circulars contain information on unusual
             minor planets, routine data on comets and natural satellites,
             and occasional editorial announcements.  They are published
        on behalf of Division F of the International Astronomical Union by the
              Minor Planet Center, Smithsonian Astrophysical Observatory,
                              Cambridge, MA 02138, U.S.A.
    			  
                 Prepared using the Tamkin Foundation Computer Network
    
                                  MPC@CFA.HARVARD.EDU
                URL https://www.minorplanetcenter.net/    ISSN 1523-6714
    
                                    2023 RE15                                
    
    
    Observations:
         K23R15E KC2023 09 15.01433 00 32 29.748-21 23 06.54         19.9 GXES019L87
         K23R15E*KC2023 09 15.01682 00 32 28.459-21 23 23.32         19.8 GXES019L87
         K23R15E KC2023 09 15.01806 00 32 27.847-21 23 31.16         19.8 GXES019L87
         K23R15E KC2023 09 15.01881 00 32 27.487-21 23 36.06         19.7 GXES019L87
         K23R15E KC2023 09 15.02329 00 32 25.258-21 24 05.62         19.3 GXES019L87
         K23R15E mC2023 09 15.33440100 30 21.758-22 01 15.92               VES019I52
         K23R15E mC2023 09 15.33472600 30 21.503-22 01 18.52         19.39GVES019I52
         K23R15E mC2023 09 15.34017800 30 18.817-22 01 53.87         20.35GVES019I52
         K23R15E mC2023 09 15.34049800 30 18.644-22 01 55.78         19.53GVES019I52
         K23R15E  C2023 09 15.34154000 30 09.66 -21 58 25.6                WES019X09
         K23R15E  C2023 09 15.34622400 30 07.43 -21 58 55.1                WES019X09
         K23R15E  C2023 09 15.53738100 28 50.984-22 22 59.99         19.72GVES019F51
         K23R15E  C2023 09 15.53802000 28 50.681-22 23 04.01         19.64GVES019F51
         K23R15E KC2023 09 15.61115400 28 22.78 -22 27 28.9          19.9 GVES019474
         K23R15E KC2023 09 15.61297100 28 21.88 -22 27 41.1          19.9 GVES019474
         K23R15E KC2023 09 15.61478800 28 20.99 -22 27 52.5          20.2 GVES019474
         K23R15E KC2023 09 15.61660500 28 20.14 -22 28 04.7          19.8 GVES019474
         K23R15E 0B2023 09 15.88507800 26 39.643-22 58 35.87         19.5 VZES019M49
         K23R15E 0B2023 09 15.89127600 26 36.550-22 59 18.60         19.8 VZES019M49
         K23R15E 0B2023 09 15.89714600 26 33.642-22 59 58.69         19.9 VZES019M49
         K23R15E  C2023 09 16.27965900 23 48.864-23 44 57.52         20.1 GVES019654
         K23R15E  C2023 09 16.28373900 23 46.824-23 45 25.27         20.1 GVES019654
    
    Observer details:
    474 Mount John Observatory, Lake Tekapo.  Observers A. C. Gilmore, P. M.
        Kilmartin.  Measurer P. M. Kilmartin.  1.0-m f/7.7 reflector + CCD.
    654 Table Mountain Observatory, Wrightwood-PHMC.  Observers N. Evans, P. Choi,
        N. Saini, C. Zhai, R. Trahan, M. Shao.  1.0-m Reflector + CCD.
    F51 Pan-STARRS 1, Haleakala.  Observers J. Bulger, K. Chambers, T. Lowe, P.
        Minguez, A. Schultz, I. Smith.  Measurers S. Chastel, J. Fairlamb, M.
        Huber, Y. Ramanjooloo, R. Wainscoat, R. Weryk.  1.8-m Ritchey-Chretien +
        CCD.
    I52 Steward Observatory, Mt. Lemmon Station.  Observer D. C. Fuls.  Measurers
        E. J. Christensen, D. Fay, J. B. Fazekas, D. C. Fuls, A. R. Gibbs, A. D.
        Grauer, H. Groeller, J. K. Hogan, R. A. Kowalski, S. M. Larson, G. J.
        Leonard, D. Rankin, R. L. Seaman, A. Serrano, F. C. Shelly, K. W.
        Wierzchos.  1.0-m prime focus + CCD.
    L87 Moonbase South Observatory, Hakos.  Observer G. Duszanowicz.  Measurer J.
        Camarasa.  0.28-m f/1.9 reflector + CCD.
    M49 IAS Remote Observatory, Hakos.  Observers D. Husar, M. Junius.  Measurer
        D. Husar.  0.25-m f/4.6 reflector + CMO.
    X09 Deep Random Survey, Rio Hurtado.  Observers A. Schnabel, D. Ruhela.
        Measurer S. Deen.  0.43-m reflector + CMOS.
    
    Orbital elements:
    2023 RE15                                                Earth MOID = 0.0134 AU
    Epoch 2023 Sept. 13.0 TT = JDT 2460200.5                Veres                   
    M 193.77094              (2000.0)            P               Q                  
    n   1.14832421     Peri.   12.37944     -0.93996867     -0.34066274             
    a   0.9031496      Node   147.68059     +0.30979144     -0.87661417             
    e   0.1609590      Incl.    2.16464     +0.14313686     -0.33984775             
    P   0.86           H   25.76          G   0.15           U   7                  
    Residuals in seconds of arc
    230915 L87  0.3-  0.8+    230915 I52  0.4-  0.4+    230915 474  0.1+  0.4-
    230915 L87  1.2-  0.3+    230915 X09  0.1-  0.6+    230915 M49  0.1+  0.4+
    230915 L87  1.2-  0.5+    230915 X09  0.1-  0.7+    230915 M49  0.3-  0.2+
    230915 L87  1.1-  0.5+    230915 F51  0.1-  0.2+    230915 M49  0.2-  0.4+
    230915 L87  1.4-  0.2+    230915 F51  0.1+  0.3+    230916 654  0.0   0.0
    230915 I52  1.1+  0.1-    230915 474  0.2+  0.1+    230916 654  0.1+  0.1-
    230915 I52  0.2-  0.6-    230915 474  0.1-  0.3-
    230915 I52  0.2-  0.2+    230915 474  0.3-  0.1+
    
    Ephemeris:
    2023 RE15                a,e,i = 0.90, 0.16, 2                   q = 0.7578
    Date    TT    R. A. (2000) Decl.     Delta      r    Elong.  Phase     V
    2023 08 17    01 56 45.9 +12 05 57   0.07577 1.0436   112.1    64.0    22.5
    ...
    2023 09 01    01 35 39.3 +00 17 53   0.05428 1.0485   135.0    42.9    21.2
    ...
    2023 09 09    01 06 57.8 -10 48 09   0.04551 1.0471   150.0    28.7    20.4
    ...
    2023 09 15    00 32 37.5 -21 21 35   0.04177 1.0443   156.3    22.8    20.0
    2023 09 16    00 25 42.7 -23 11 24   0.04145 1.0437   156.0    23.0    20.0
    2023 09 17    00 18 28.2 -25 00 32   0.04123 1.0430   155.4    23.7    20.0
    ...
    2023 09 23    23 29 18.0 -34 58 42   0.04183 1.0381   144.6    34.0    20.4
    ...
    2023 10 01    22 18 19.0 -43 37 13   0.04680 1.0292   125.3    52.6    21.1
    ...
    2023 10 16    20 37 39.8 -48 01 02   0.06192 1.0055    96.0    80.5    22.5
    
    M. P. C. Staff               (C) Copyright 2023 MPC           M.P.E.C. 2023-S19
    


    Read MPEC 2023-S18 Read MPEC 2023-S20


    MPEC number:

    Enter an MPEC number in one of the following forms:

    • 1997-B01 (the full form)
    • J97B01 (the packed version of the full form)
    • B01 (the abbreviated form)